Location: El Águila
(10.4167°N, 66.7167°W)
Time: 04:23:39
(UTC+00:00)

Cosmos 2333 - Pass Details

Date: 02 October 2022
Orbit: 832 x 863 km, 70.9° (Epoch: 26 November)

Event Time Altitude Azimuth Distance (km) Brightness Sun altitude
Rises 23:39:01 0° 185° (S) 3,428 7.4 -21.1°
Reaches altitude 10° 23:41:33 10° 179° (S) 2,493 6.6 -21.7°
Maximum altitude 23:47:05 51° 105° (ESE) 1,073 4.3 -23.1°
Enters shadow 23:47:06 51° 104° (ESE) 1,073 4.3 -23.1°
